Location: Brno
(49.2000°N, 16.6330°E)
Time: 21:29:27
(UTC+02:00)

Meteor 1-4 Rocket - Visible Passes

Search period start: 22 May 2017 00:00
Search period end: 01 June 2017 00:00
Orbit: 454 x 509 km, 81.2° (Epoch: 21 May)

Date Brightness Start Highest point End Pass type
(mag) Time Alt. Az. Time Alt. Az. Time Alt. Az.
22 May 4.5 21:59:29 10° NNE 22:02:00 17° ENE 22:04:06 12° ESE visible
22 May 3.5 23:33:55 10° NNW 23:37:22 39° W 23:38:24 31° SW visible
23 May 4.9 21:34:41 10° NE 21:36:07 12° ENE 21:37:32 10° E visible
23 May 2.7 23:08:07 10° NNW 23:11:44 64° W 23:13:05 34° SSW visible
24 May 2.5 22:42:25 10° N 22:46:04 79° ENE 22:47:46 29° SSE visible
25 May 2.9 22:16:49 10° N 22:20:21 48° ENE 22:22:29 21° SE visible
25 May 5.1 23:53:17 10° WNW 23:55:04 13° W 23:56:47 10° WSW visible
26 May 3.6 21:51:19 10° N 21:54:35 31° ENE 21:57:12 14° SE visible
26 May 4.7 23:26:52 10° NW 23:29:33 20° W 23:31:30 13° SW visible
27 May 4.2 21:25:58 10° NNE 21:28:46 21° ENE 21:31:32 10° ESE visible
27 May 4.0 23:00:48 10° NNW 23:03:59 30° W 23:06:15 16° SSW visible
28 May 3.3 22:34:54 10° NNW 22:38:23 48° W 22:41:00 16° SSW visible
29 May 2.5 22:09:08 10° NNW 22:12:44 79° W 22:15:46 13° S visible
30 May 2.6 21:43:27 10° N 21:47:02 63° ENE 21:50:31 10° SSE visible
30 May 5.5 23:21:14 10° W 23:21:36 10° W 23:21:57 10° W visible
31 May 5.1 22:53:55 10° NW 22:56:06 16° W 22:58:15 10° SW visible
